Change the Weather History Date:

Sunday, March 30, 2014

  Actual Average Record
Temperature  
Mean Temperature 28 °F 30 °F  
Max Temperature 39 °F 38 °F 49 °F (1995)
Min Temperature 17 °F 23 °F 2 °F (2004)
Degree Days  
Heating Degree Days 37    
Month to date heating degree days 1132  
Since 1 July heating degree days 7881  
Cooling Degree Days 0    
Month to date cooling degree days 0  
Year to date cooling degree days 0  
Moisture  
Dew Point 16 °F    
Average Humidity 63    
Maximum Humidity 84    
Minimum Humidity 41    
Precipitation  
Precipitation 0.00 in 0.01 in 0.08 in (2011)
Month to date precipitation 0.67 0.58  
Year to date precipitation 2.69 2.03  
Snow  
Snow 0.00 in 0.30 in 3.70 in (1999)
Month to date snowfall 10.9 9.7  
Since 1 July snowfall 64.3 70.0  
Snow Depth 7.00 in    
Sea Level Pressure  
Sea Level Pressure 30.00 in    
Wind  
Wind Speed 2 mph (WSW)    
Max Wind Speed 6 mph    
Max Gust Speed -    
Visibility 10 miles    
Events      
T = Trace of Precipitation, MM = Missing Value Source: NWS Daily Summary

Daily Weather History Graph

Daily Weather History Graph

Search for Another Location

Airport or City:

Trip Planner

Search our weather history database for the weather conditions in past years. The results will help you decide how hot, cold, wet, or windy it might be!

Date:

Astronomy

Mar. 30, 2014 Rise Set
Actual Time 7:29 AM AKDT 8:41 PM AKDT
Civil Twilight 6:44 AM AKDT 9:25 PM AKDT
Nautical Twilight 5:49 AM AKDT 10:21 PM AKDT
Astronomical Twilight 4:45 AM AKDT 11:27 PM AKDT
Moon 7:19 AM AKDT (3/30) 9:17 PM AKDT (3/30)
Length of Visible Light 14h 41m
Length of Day
13h 12m
New Moon, 0% of the Moon is Illuminated
Mar 30
New Moon
Apr 7
First Quarter
Apr 14
Full
Apr 21
Last Quarter
Apr 28
New

Hourly Weather History & Observations

Time (AKDT) Temp. Windchill Dew Point Humidity Pressure Visibility Wind Dir Wind Speed Gust Speed Precip Events Conditions
12:53 AM 23.0 °F 17.0 °F 16.0 °F 74% 29.88 in 10.0 mi South 4.6 mph - N/A   Clear
1:53 AM 21.0 °F 16.2 °F 15.1 °F 78% 29.90 in 10.0 mi SSE 3.5 mph - N/A   Clear
2:53 AM 24.1 °F 17.0 °F 18.0 °F 77% 29.91 in 10.0 mi South 5.8 mph - N/A   Clear
3:53 AM 21.9 °F - 16.0 °F 78% 29.93 in 10.0 mi Calm Calm - N/A   Clear
4:53 AM 21.0 °F - 15.1 °F 78% 29.94 in 10.0 mi Calm Calm - N/A   Clear
5:53 AM 19.9 °F 13.4 °F 16.0 °F 85% 29.95 in 10.0 mi South 4.6 mph - N/A   Clear
6:53 AM 23.0 °F - 17.1 °F 78% 29.96 in 10.0 mi Calm Calm - N/A   Clear
7:53 AM 19.0 °F - 15.1 °F 85% 29.98 in 10.0 mi Calm Calm - N/A   Partly Cloudy
8:53 AM 23.0 °F - 16.0 °F 74% 29.99 in 10.0 mi Calm Calm - N/A   Clear
9:53 AM 27.0 °F - 19.0 °F 72% 30.00 in 10.0 mi Calm Calm - N/A   Partly Cloudy
10:53 AM 30.9 °F - 19.0 °F 61% 30.01 in 10.0 mi Calm Calm - N/A   Clear
11:53 AM 32.0 °F 27.5 °F 19.0 °F 59% 30.02 in 10.0 mi NW 4.6 mph - N/A   Clear
12:53 PM 34.0 °F 31.0 °F 19.0 °F 54% 30.02 in 10.0 mi NW 3.5 mph - N/A   Clear
1:53 PM 34.0 °F 31.0 °F 12.0 °F 40% 30.02 in 10.0 mi NNW 3.5 mph - N/A   Clear
2:53 PM 36.0 °F 33.3 °F 12.9 °F 39% 30.03 in 10.0 mi West 3.5 mph - N/A   Partly Cloudy
3:53 PM 37.0 °F 34.5 °F 12.9 °F 37% 30.03 in 10.0 mi West 3.5 mph - N/A   Clear
4:53 PM 37.0 °F 33.3 °F 10.9 °F 34% 30.03 in 10.0 mi West 4.6 mph - N/A   Partly Cloudy
5:53 PM 37.9 °F 35.5 °F 17.1 °F 43% 30.03 in 10.0 mi West 3.5 mph - N/A   Partly Cloudy
6:53 PM 36.0 °F 30.3 °F 17.1 °F 46% 30.04 in 10.0 mi WNW 6.9 mph - N/A   Partly Cloudy
7:53 PM 34.0 °F 31.0 °F 19.9 °F 56% 30.04 in 10.0 mi NW 3.5 mph - N/A   Partly Cloudy
8:53 PM 30.0 °F - 17.1 °F 59% 30.05 in 10.0 mi Calm Calm - N/A   Clear
9:53 PM 27.0 °F 23.0 °F 14.0 °F 58% 30.06 in 10.0 mi SSE 3.5 mph - N/A   Clear
10:53 PM 27.0 °F 23.0 °F 12.9 °F 56% 30.06 in 10.0 mi South 3.5 mph - N/A   Clear
11:53 PM 27.0 °F 23.0 °F 15.1 °F 61% 30.07 in 10.0 mi SSE 3.5 mph - N/A   Clear